Flag for Poland Weather past 2 weeks in Rzeszów, Poland

Now
61 °F

Passing clouds.


Feels Like: 61 °F
Forecast: 56 / 72 °F
Wind: 5 mph from Southwest

Location: Rzeszow-Jasionka

Current Time: May 30, 2015 at 8:59:05 PM

Latest Report: May 30, 2015 at 8:00 PM


Visibility: N/A

Pressure: 29.95 "Hg

Humidity: 88%

Dew point: 57 °F

Location of RzeszówLocation

Historic Weather in Rzeszów — Graph

°F

Rzeszów temperature yesterday

Maximum temperature yesterday: 70 °F (at 5:00 PM)
Minimum temperature yesterday: 39 °F (at 3:00 AM)
Average temperature yesterday: 56 °F

Past Weeks' High & Low Weather Summary

 TemperatureHumidityPressure
High77 °F (May 19, 2:00 PM)100% (May 16, 6:30 AM)30.21 "Hg (May 16, 6:30 AM)
Low39 °F (May 16, 5:00 AM)28% (May 18, 5:00 PM)29.68 "Hg (May 26, 11:00 PM)
Average56 °F78%29.97 "Hg
* Reported May 15 7:00 PM — May 30 7:30 PM, Rzeszów, Weather by CustomWeather, © 2015

Note: Actual official high and low records may vary slightly from our data, if they occured in-between our weather recording intervals... More about our weather records

Advertising

Rzeszów weather history for previous 24 hours

 ConditionsComfort  
Time TempWeatherWind HumidityBarometerVisibility
7:30 PM
Sat, May 30
63 °FSunny.3 mph88%29.92 "Hg10 mi
7:00 PM61 °FPassing clouds.2 mph88%29.92 "HgN/A
6:30 PM59 °FScattered clouds.6 mph88%29.92 "HgN/A
6:00 PM59 °FThunderstorms. Scattered clouds.8 mph82%29.92 "HgN/A
5:30 PM59 °FThunderstorms. Scattered clouds.10 mph82%29.92 "HgN/A
5:00 PM63 °FPassing clouds.26 mph68%29.92 "HgN/A
4:30 PM73 °FSunny.8 mph44%29.89 "Hg10 mi
4:00 PM73 °FPassing clouds.8 mph44%29.86 "HgN/A
3:30 PM77 °FPassing clouds.7 mph36%29.89 "HgN/A
3:00 PM77 °FSunny.10 mph36%29.89 "Hg10 mi
2:30 PM75 °FSunny.9 mph36%29.89 "Hg10 mi
2:00 PM75 °FPassing clouds.6 mph39%29.89 "HgN/A
1:30 PM73 °FPassing clouds.7 mph44%29.89 "HgN/A
1:00 PM73 °FPassing clouds.9 mph41%29.89 "HgN/A
12:30 PM73 °FPassing clouds.7 mph44%29.92 "HgN/A
12:00 PM72 °FPassing clouds.6 mph44%29.92 "HgN/A
11:30 AM73 °FPassing clouds.7 mph47%29.92 "HgN/A
11:00 AM72 °FPassing clouds.7 mph53%29.92 "HgN/A
10:30 AM70 °FPassing clouds.9 mph57%29.92 "HgN/A
10:00 AM68 °FSunny.9 mph56%29.92 "Hg10 mi
9:30 AM66 °FSunny.10 mph60%29.92 "Hg10 mi
9:00 AM66 °FSunny.9 mph60%29.92 "Hg10 mi
8:30 AM64 °FSunny.9 mph60%29.92 "Hg10 mi
8:00 AM61 °FSunny.8 mph68%29.92 "Hg10 mi
7:30 AM61 °FPassing clouds.7 mph68%29.92 "HgN/A
7:00 AM57 °FPassing clouds.5 mph77%29.92 "HgN/A
6:30 AM54 °FPassing clouds.5 mph88%29.92 "HgN/A
6:00 AM50 °FSunny.2 mph94%29.92 "Hg10 mi
5:30 AM48 °FSunny.No wind94%29.92 "Hg10 mi
5:00 AM45 °FClear.1 mph93%29.92 "Hg10 mi
4:30 AM46 °FClear.No wind93%29.89 "Hg10 mi
4:00 AM46 °FClear.No wind93%29.92 "Hg10 mi
3:30 AM46 °FClear.3 mph93%29.92 "Hg10 mi
3:00 AM48 °FClear.3 mph87%29.92 "Hg10 mi
2:30 AM48 °FClear.3 mph94%29.92 "Hg10 mi
2:00 AM48 °FClear.1 mph94%29.92 "Hg10 mi
1:30 AM50 °FClear.No wind88%29.92 "Hg10 mi
1:00 AM50 °FClear.2 mph88%29.95 "Hg10 mi
12:30 AM52 °FClear.3 mph88%29.95 "Hg10 mi
12:00 AM54 °FClear.2 mph82%29.95 "Hg10 mi
11:30 PM
Fri, May 29
54 °FClear.1 mph82%29.95 "Hg10 mi
10:30 PM55 °FClear.2 mph82%29.92 "Hg10 mi
10:00 PM55 °FClear.1 mph82%29.92 "Hg10 mi
9:30 PM55 °FClear.2 mph82%29.95 "Hg10 mi
9:00 PM59 °FSunny.2 mph72%29.92 "Hg10 mi
8:30 PM64 °FSunny.3 mph56%29.92 "Hg10 mi
8:00 PM66 °FSunny.1 mph49%29.92 "Hg10 mi
Weather by CustomWeather, © 2015

See weather overviewHow to use our weather pages